Theta_e
298 299 299 299 299 299 299 299 299 299 300 300 300 301 301 301 301 302 302 302 302 303 304 304 304 304 304 304 304 304 304 304 305 305 305 303 303 304 303 304 304 304 304 304 306 308 309 308 308 308 308 308 309 309 310 310 311 313 312 310 308 308 307 307 306 306 306 307 308 307 307 307 306 306 307 308 309 309 309 308 308 308 308 308 307 309 313 315
298 299 299 299 299 299 299 299 300 300 300 300 300 300 301 301 301 301 302 302 302 303 303 304 305 305 305 305 305 305 304 304 305 304 304 304 304 304 304 304 304 305 305 306 307 309 309 308 308 307 307 307 308 308 309 309 310 311 310 309 308 307 306 307 306 306 306 307 308 307 307 307 306 306 307 307 308 308 307 307 306 307 307 307 306 307 311 313
298 299 299 299 299 299 299 299 300 300 300 300 301 301 300 301 301 301 302 302 302 303 303 303 304 305 305 306 306 306 305 304 304 304 303 304 304 304 304 304 305 305 307 308 308 309 309 309 309 308 307 307 307 307 308 308 309 309 309 308 307 307 306 306 307 307 306 307 307 307 307 307 306 306 306 306 307 307 306 306 306 306 306 306 306 306 308 312
299 299 299 299 300 300 300 300 300 300 300 301 301 301 301 301 301 302 302 302 303 303 304 304 304 305 305 305 306 306 308 306 303 303 303 304 304 305 305 304 305 305 307 308 308 308 308 308 308 308 308 308 308 307 307 308 308 308 308 307 307 306 306 306 306 306 307 307 307 307 306 306 306 306 305 305 306 306 305 305 305 306 306 306 306 305 306 310
299 299 299 300 300 300 300 300 300 300 300 301 301 302 301 301 301 302 302 301 302 303 304 304 304 304 304 305 305 306 309 306 302 303 303 303 304 304 304 304 304 305 307 309 309 308 308 308 307 307 308 307 308 307 307 307 307 307 306 306 306 306 306 306 306 306 306 307 307 306 306 306 306 306 305 305 305 305 305 305 305 305 306 305 305 304 304 309
299 299 299 300 300 300 300 300 300 300 300 301 301 301 302 301 301 302 302 301 301 301 302 304 304 305 305 305 306 306 307 304 302 303 303 303 303 303 304 304 304 304 306 307 308 308 308 308 308 307 307 307 307 307 307 307 307 306 306 306 306 306 306 306 306 306 306 306 306 307 306 306 306 306 305 305 304 304 304 305 305 305 306 305 305 304 304 308
299 299 299 299 300 300 300 300 300 300 300 301 301 301 302 302 301 301 301 301 301 301 302 302 303 303 303 304 305 304 303 301 302 302 302 303 303 303 303 304 304 304 305 305 308 308 308 308 308 308 308 307 307 307 307 307 307 306 306 306 306 306 306 306 306 306 306 306 306 306 307 306 306 305 305 305 304 304 304 305 305 305 305 305 304 303 302 307
299 299 299 300 300 300 300 300 300 300 300 301 301 301 301 301 301 301 301 301 301 302 302 303 303 303 303 303 303 301 300 300 301 302 302 302 302 303 303 304 304 304 305 305 306 307 308 308 307 308 308 307 307 307 307 307 306 306 306 306 306 306 306 306 305 305 306 306 305 306 307 306 305 305 305 305 305 304 304 304 305 305 305 304 304 303 301 305
300 300 300 300 300 300 300 300 300 300 300 301 301 301 301 301 301 301 301 302 302 302 303 303 304 304 304 305 303 302 299 299 300 301 301 301 301 302 303 303 304 304 305 305 305 306 307 307 307 307 307 307 307 307 307 307 306 306 306 306 306 306 306 306 306 305 306 306 305 305 306 306 306 305 305 305 304 304 304 304 305 305 305 305 304 303 301 302
300 300 300 300 300 300 300 301 301 300 300 301 301 301 301 301 301 301 302 302 302 302 302 303 304 304 304 304 304 302 300 299 300 300 300 301 301 302 303 304 304 304 304 305 305 306 307 308 307 306 306 306 306 306 307 307 306 306 306 306 305 306 305 306 306 306 306 305 305 305 306 306 306 306 305 304 304 304 304 304 305 305 305 304 304 303 300 300
300 300 301 300 300 301 300 301 301 301 301 301 301 301 301 301 301 301 302 302 302 302 303 303 303 302 302 302 302 301 300 299 300 300 300 301 301 301 303 304 304 304 304 304 305 306 307 308 308 308 307 306 305 305 305 306 306 306 306 306 306 306 306 306 306 306 306 305 305 305 305 306 307 306 305 304 304 304 304 304 305 305 304 303 302 301 300 298
300 300 300 301 301 301 301 301 301 301 301 301 301 301 302 302 302 302 302 302 303 303 303 303 303 302 302 301 300 299 299 299 299 300 300 301 301 301 302 304 305 304 304 304 305 306 307 308 308 308 308 306 305 305 305 305 306 306 306 306 306 307 307 306 306 306 306 305 305 306 305 306 306 305 304 303 304 304 304 304 304 304 302 301 300 299 299 297
300 300 300 300 301 301 301 302 302 302 301 301 301 301 302 302 302 302 303 303 303 303 303 303 302 302 302 301 299 299 300 300 299 300 301 301 301 301 301 304 305 305 305 304 305 305 306 307 307 307 307 306 305 305 306 305 305 306 307 307 307 308 308 307 306 306 306 306 306 306 307 307 306 305 304 303 304 303 304 304 303 302 301 300 299 298 297 296
300 300 300 300 300 301 301 301 301 302 302 302 302 302 302 302 302 303 303 303 304 304 304 303 303 303 302 301 300 300 300 299 300 301 301 301 301 301 301 303 304 305 305 305 305 306 306 307 307 307 307 307 306 305 306 306 306 307 308 308 308 309 308 307 306 306 305 306 306 306 307 307 306 305 305 303 303 303 303 304 303 302 301 299 298 297 297 296
301 300 300 300 300 301 301 301 301 301 302 302 302 302 302 303 303 303 303 303 304 304 304 304 304 303 302 301 300 300 300 300 300 300 301 301 301 301 302 303 303 303 304 305 306 307 307 308 308 308 309 309 309 309 309 308 308 309 310 309 309 309 308 307 307 306 305 306 306 306 306 307 306 306 305 304 303 303 303 303 303 302 300 299 298 297 296 295
300 300 300 300 300 301 301 301 301 301 302 302 302 302 303 303 303 303 304 304 304 304 304 304 304 304 304 302 301 301 301 301 300 300 300 301 301 301 302 302 303 303 304 304 306 307 308 308 308 307 308 309 310 313 311 309 309 309 309 310 309 308 308 307 306 306 306 306 306 306 306 306 306 306 305 305 304 303 303 303 303 301 300 299 298 296 295 294
300 300 301 301 301 301 301 302 302 302 302 302 303 303 303 303 303 304 304 304 305 304 305 305 304 305 304 302 302 301 301 301 301 301 301 300 301 301 302 302 303 305 306 305 305 307 307 308 308 307 306 307 308 311 311 310 310 309 308 309 308 308 308 308 307 306 306 305 305 306 307 306 306 306 306 305 304 303 303 303 302 300 300 299 297 296 295 294
300 300 300 301 301 301 302 302 302 303 303 303 304 303 304 304 304 305 304 305 305 305 306 305 305 306 304 301 301 301 301 301 301 302 302 302 302 302 303 304 304 306 308 307 305 305 306 306 306 306 305 305 305 308 311 309 309 309 308 309 309 309 308 308 308 306 306 305 305 306 306 306 306 306 306 305 304 303 303 303 302 300 300 299 297 296 295 294
300 300 301 301 302 302 303 303 303 303 303 304 304 305 306 305 304 304 304 305 305 306 306 305 304 305 303 301 301 302 302 302 301 302 302 303 304 304 305 307 307 306 307 309 306 304 305 304 305 306 304 304 304 305 307 307 307 308 308 309 309 309 309 308 307 306 305 305 305 306 306 306 306 306 306 306 304 304 303 302 302 300 299 299 297 296 295 294
300 301 301 302 302 302 303 303 303 303 303 304 304 306 309 308 307 304 302 303 302 302 303 303 302 302 301 301 301 303 303 303 302 301 303 303 305 305 305 307 307 306 306 309 308 304 303 303 304 305 303 303 303 304 305 305 306 306 307 309 309 309 309 307 306 306 306 305 306 306 306 306 306 306 306 306 304 304 304 303 302 300 299 299 298 295 295 294
301 301 302 302 303 303 303 303 303 303 303 304 304 306 308 309 309 306 302 302 301 301 301 301 302 302 301 301 301 302 303 303 302 302 303 303 305 306 305 306 307 306 306 307 308 304 302 303 303 302 302 302 303 304 304 304 304 305 307 308 308 308 307 306 306 307 306 306 305 305 306 306 306 306 306 305 304 304 304 302 301 300 299 299 297 295 294 294
302 302 302 302 303 303 303 303 303 303 303 303 304 305 305 305 306 305 304 303 302 302 302 301 302 302 302 301 301 302 302 302 302 302 302 303 304 305 305 306 307 306 305 306 307 306 303 303 302 301 300 301 303 304 303 303 304 305 307 307 306 306 306 306 306 306 305 306 305 306 307 306 306 306 306 305 304 304 303 301 300 300 299 298 296 295 294 293
302 302 302 302 303 303 303 303 303 303 303 303 303 303 303 304 304 305 306 305 304 302 302 302 302 302 302 302 301 302 301 301 302 301 301 303 303 304 304 306 307 306 305 305 305 305 304 302 301 300 300 301 303 303 302 303 306 307 308 307 305 305 305 306 306 305 305 306 306 306 306 305 305 306 306 305 304 304 303 301 300 299 299 297 295 295 294 293
303 303 303 303 303 303 303 303 303 303 303 303 303 302 303 303 303 304 305 306 306 303 303 304 303 302 302 302 302 303 302 301 301 300 301 302 303 304 303 304 307 307 305 305 304 303 303 301 300 300 301 302 303 303 301 303 307 308 308 306 303 304 305 305 305 305 305 306 305 305 305 307 307 307 306 305 304 304 303 301 299 298 298 297 296 296 295 293
303 303 303 303 303 303 303 303 303 304 303 303 303 302 302 302 302 302 304 308 307 304 304 304 304 303 302 303 302 302 304 303 302 301 300 301 303 305 304 303 305 306 307 307 305 303 302 301 301 302 302 303 304 303 301 303 306 307 306 304 303 304 305 305 306 306 308 308 306 304 307 309 308 308 307 306 305 305 302 300 300 299 299 297 296 296 295 294
303 303 303 303 303 303 303 303 303 304 303 303 302 303 302 302 302 301 306 313 310 305 306 305 305 305 303 303 302 303 306 306 303 301 301 301 302 304 306 304 303 304 305 304 303 302 302 302 302 303 303 305 305 303 301 302 305 307 306 304 304 305 305 306 306 306 308 309 307 305 306 307 306 307 307 306 305 305 303 301 300 300 299 298 297 296 295 294
303 303 303 304 303 303 304 303 303 304 304 303 303 303 302 303 303 302 309 316 308 304 305 305 305 304 303 302 302 305 307 305 304 303 301 302 302 303 306 305 304 303 299 300 305 303 301 303 302 303 305 305 303 302 301 301 303 306 307 304 304 304 304 305 305 305 307 308 307 305 304 304 306 308 307 305 305 305 305 304 303 302 300 299 298 296 295 294
303 303 303 303 303 304 304 303 303 303 303 303 303 303 303 303 302 303 311 312 304 303 305 304 304 303 303 304 303 304 304 303 305 304 301 302 302 303 305 304 304 305 300 303 309 303 300 303 302 303 305 303 302 301 300 300 301 304 304 303 302 302 303 304 304 306 306 308 309 305 303 305 308 308 305 304 305 305 306 306 305 303 302 300 299 297 295 294
303 303 303 303 304 304 303 304 304 303 303 303 303 303 303 303 302 307 313 308 302 303 304 304 305 303 303 305 304 303 304 303 304 303 303 303 302 302 304 302 302 304 304 306 308 304 301 300 299 302 303 302 302 300 299 300 301 302 301 301 302 303 304 304 304 305 306 308 309 306 303 304 307 309 306 306 306 306 306 307 305 304 303 301 300 298 296 295
303 303 303 303 303 303 304 304 303 303 303 302 303 303 302 304 308 312 312 306 304 304 303 304 305 302 303 306 305 303 304 304 302 302 303 304 302 302 302 301 302 304 304 305 305 303 300 298 299 302 301 300 300 300 299 300 300 300 300 302 304 304 304 304 305 304 306 309 309 305 302 302 305 309 308 307 307 305 305 306 305 305 304 302 301 299 297 295
302 303 303 303 304 303 304 303 303 304 303 303 303 302 303 309 314 313 307 303 304 304 303 305 305 303 303 306 305 303 304 304 302 303 304 304 302 302 302 302 303 305 306 307 306 303 301 301 302 301 299 298 300 301 302 300 299 300 302 304 306 307 306 306 306 304 307 312 308 303 302 301 304 308 306 305 305 304 304 305 305 304 304 303 301 299 298 296
303 303 303 303 304 303 304 304 304 303 302 304 302 302 308 313 313 310 306 304 305 306 304 304 304 304 303 304 304 302 304 304 302 303 305 305 303 301 302 302 303 308 311 309 307 306 305 304 302 300 299 299 301 304 304 303 301 302 303 305 307 309 309 309 309 308 309 311 307 302 301 302 304 305 304 303 304 304 304 304 303 304 304 303 301 300 298 297
303 303 303 304 304 303 304 304 304 303 303 303 302 305 313 315 309 307 306 305 305 304 303 303 304 304 303 305 304 301 303 304 303 304 304 305 306 303 302 300 300 307 310 308 307 307 307 305 302 302 301 299 301 303 303 303 303 302 303 305 307 308 308 309 310 309 310 309 306 303 302 305 306 305 303 303 303 304 303 302 302 302 303 303 301 300 299 298
303 303 303 304 304 304 304 304 304 304 303 303 305 312 318 312 307 306 305 304 302 300 302 301 303 304 304 304 303 301 304 305 303 304 305 306 306 305 303 300 300 303 304 306 306 305 308 309 305 304 303 301 300 301 300 301 301 302 302 303 305 306 305 308 309 309 309 307 305 303 303 306 308 306 304 303 303 303 302 301 301 301 301 301 301 300 300 299
303 303 304 304 304 304 304 304 304 304 304 305 310 317 316 309 306 308 307 304 300 300 301 300 302 306 306 304 302 300 302 305 304 304 305 305 304 303 301 299 299 300 302 306 306 304 307 311 306 301 300 300 300 300 298 299 302 303 302 303 305 303 302 305 308 306 305 304 304 304 306 307 306 304 302 301 302 302 302 301 300 300 300 300 300 300 299 299
303 303 304 304 304 304 305 304 305 305 305 309 316 316 310 305 305 308 308 304 302 302 303 303 304 308 308 306 305 303 301 303 305 305 305 303 302 301 300 298 298 298 300 303 304 303 306 309 305 301 299 298 298 299 298 300 303 304 303 303 302 300 300 303 306 304 303 305 306 306 307 308 306 304 302 301 301 302 302 301 300 300 300 299 300 300 299 299
303 304 304 304 304 304 305 304 305 306 307 312 318 313 303 300 300 302 303 302 301 300 304 307 306 306 307 307 307 305 304 304 306 307 305 303 302 301 299 298 297 297 297 298 301 302 302 305 305 304 303 298 296 298 298 297 300 303 304 302 300 301 301 302 304 305 305 307 308 306 306 307 307 306 304 302 301 302 303 302 301 300 300 300 300 300 300 299
303 304 304 304 305 304 305 304 305 306 307 311 314 307 300 299 298 299 300 300 301 301 303 307 306 304 305 307 306 305 305 306 306 306 305 304 304 301 299 299 297 296 295 296 300 301 301 304 305 303 304 300 296 299 301 299 297 300 301 299 300 304 304 303 305 307 306 307 307 307 306 306 306 306 304 303 302 302 303 303 302 301 301 301 301 301 301 301
304 305 305 304 305 305 305 305 304 305 310 314 314 308 300 298 298 297 298 299 301 303 305 304 304 305 305 305 305 304 304 305 304 304 305 304 304 302 299 298 297 296 295 296 300 300 300 305 306 303 303 301 298 301 304 302 298 297 299 299 300 303 304 304 304 305 305 306 307 307 306 306 306 304 302 302 302 302 303 303 302 302 301 302 301 301 302 301
304 306 306 304 305 305 305 305 304 307 311 311 309 304 298 298 299 297 296 299 300 302 305 304 302 304 305 303 303 301 302 303 301 303 304 302 303 303 299 297 297 297 296 296 298 299 300 303 306 304 303 303 303 302 303 304 301 300 301 302 301 302 304 303 302 302 303 304 305 305 305 306 305 303 301 300 301 302 303 303 302 302 301 301 301 301 301 300
304 307 307 304 305 305 305 306 306 305 306 304 301 299 297 298 300 297 296 297 298 299 300 301 301 302 302 304 303 300 300 303 301 302 303 301 302 304 299 296 297 296 296 297 298 299 300 302 303 303 302 305 306 300 298 301 301 301 302 302 301 302 303 304 304 302 300 301 302 302 303 304 303 301 299 299 300 301 301 302 302 301 300 300 301 300 300 300
305 309 307 304 306 305 306 309 304 301 303 302 299 299 298 298 298 298 297 296 298 298 298 299 300 300 299 302 303 300 299 302 301 301 302 301 302 303 299 296 296 296 297 299 299 297 297 299 301 302 303 304 301 296 295 297 297 299 300 300 300 301 302 303 305 303 300 300 301 300 301 303 302 300 299 299 300 300 300 301 301 301 300 300 300 300 299 299
305 307 305 305 306 304 307 312 306 300 298 297 295 296 297 297 297 298 297 296 298 298 299 300 300 301 300 299 302 301 300 303 304 303 302 301 300 299 297 295 296 296 296 298 299 296 297 300 302 303 304 302 298 295 295 294 295 300 300 298 300 301 301 302 302 302 300 300 301 301 301 303 301 299 299 299 299 300 301 301 301 301 300 300 300 299 299 299
304 305 304 305 306 306 310 315 310 302 297 296 297 297 296 296 296 297 297 297 298 298 300 301 299 300 298 296 300 300 298 303 306 303 301 301 300 297 295 295 295 296 297 298 298 297 299 303 303 303 306 305 303 302 300 297 298 301 302 300 300 300 300 300 299 300 300 300 302 303 304 304 301 299 299 299 300 300 302 302 301 301 300 300 300 299 299 298
305 306 305 304 305 306 309 310 307 304 300 300 301 299 298 297 296 297 297 298 298 297 299 300 298 298 296 294 298 298 294 299 305 302 299 300 299 296 295 295 294 295 297 296 295 296 299 302 301 302 306 307 308 308 306 303 301 301 302 302 301 300 300 300 300 301 301 300 301 303 304 304 302 301 301 301 301 301 301 302 301 301 301 300 299 299 299 298
306 309 309 306 305 304 304 303 303 303 302 304 304 301 300 300 298 296 296 297 297 296 298 299 297 297 297 297 301 302 298 296 298 299 299 300 300 296 294 294 294 295 295 294 294 295 297 298 299 301 303 304 305 305 304 303 301 300 300 300 301 301 301 299 300 301 301 301 301 302 302 302 302 302 302 302 302 301 300 301 301 300 300 299 299 298 298 298
306 308 307 307 307 306 304 302 302 303 303 305 306 303 301 301 300 297 295 296 297 296 297 298 297 299 300 299 302 304 301 297 296 298 300 300 299 297 294 293 294 294 294 294 294 295 296 298 299 299 300 301 301 301 301 300 299 298 299 299 299 301 301 300 300 300 300 301 302 302 302 303 302 302 302 301 301 300 300 300 300 300 299 299 299 298 298 299
307 305 302 304 308 308 307 305 302 301 302 303 303 302 302 302 301 301 298 295 295 295 298 300 299 300 301 301 302 303 303 302 300 301 303 300 298 298 296 294 294 294 294 294 294 294 296 298 299 298 299 299 299 299 298 298 298 298 298 298 298 299 300 300 300 299 299 300 300 301 301 301 301 300 300 300 300 300 300 300 300 300 299 299 299 299 299 299
305 304 301 302 304 303 303 303 302 302 302 302 302 301 303 303 303 302 299 297 297 295 298 303 304 301 301 300 301 303 304 304 303 303 303 301 299 299 298 297 295 293 294 295 293 292 295 298 298 297 298 297 297 298 298 297 298 298 298 299 299 299 299 299 299 299 299 299 299 299 299 299 299 299 299 299 300 300 300 300 300 299 299 299 299 299 299 298
303 304 303 303 302 299 299 301 302 304 303 302 304 304 303 305 305 301 298 300 304 299 296 303 305 301 300 301 301 302 303 303 303 303 302 301 300 299 299 300 297 294 294 295 293 292 295 298 299 297 297 297 298 298 299 299 299 298 298 298 298 298 298 299 299 299 299 299 298 298 298 298 299 299 299 299 300 300 300 301 300 299 299 299 299 299 299 299
302 303 302 304 304 300 300 300 300 304 306 305 306 306 303 305 304 301 299 300 303 301 298 301 304 301 300 301 301 302 302 301 302 302 300 300 300 299 299 299 297 296 296 295 294 293 294 297 298 297 297 298 298 298 299 298 298 298 298 298 299 298 299 299 299 299 299 299 299 299 299 299 299 300 300 301 301 301 301 301 300 300 299 299 299 299 299 299
300 301 301 305 306 302 300 301 300 304 307 306 306 304 303 305 303 301 303 301 299 300 299 300 301 301 301 302 302 301 300 300 299 299 298 298 298 298 298 298 297 298 297 296 296 295 294 295 296 297 298 298 297 298 297 296 300 304 304 303 303 302 301 301 301 300 299 299 299 300 300 300 300 301 301 301 300 300 301 301 300 300 299 299 299 299 299 300
Wind_Speed
24 25 26 26 26 26 24 22 19 17 15 14 15 17 20 20 16 10 6 7 10 13 16 19 23 27 31 33 37 37 39 40 34 36 39 32 24 23 24 23 23 23 22 21 20 22 23 20 18 16 17 19 19 18 15 21 23 12 6 6 6 5 6 6 6 7 6 6 10 13 15 12 11 17 18 14 11 13 15 18 17 14 15 16 15 16 15 17
23 24 25 26 26 25 25 23 21 19 17 15 13 11 13 18 21 18 12 6 6 6 7 9 15 19 24 26 29 34 36 36 40 43 37 28 25 24 22 22 23 25 26 26 25 24 21 18 19 20 24 24 20 21 18 18 24 15 5 6 6 5 7 9 8 9 8 7 10 12 13 12 11 14 17 13 12 17 16 18 20 19 20 21 20 20 17 17
23 24 24 24 24 24 24 23 22 20 20 18 15 11 9 13 20 23 21 16 7 2 6 6 5 9 15 19 22 26 31 35 38 37 32 29 27 23 22 21 20 24 27 25 25 22 18 15 16 19 26 26 20 22 21 16 18 15 9 7 5 6 8 10 10 10 9 9 10 11 11 11 10 12 14 12 11 15 13 15 20 21 22 22 22 23 23 21
22 22 22 22 21 22 22 22 21 21 20 20 18 15 10 11 16 21 25 26 23 16 7 7 9 6 8 10 15 17 22 29 32 30 27 28 26 22 21 20 19 22 24 20 20 19 19 20 19 21 23 22 20 24 22 14 11 11 9 7 6 8 8 9 11 10 9 9 9 9 9 9 9 10 13 12 8 8 10 13 15 16 18 19 20 22 23 23
19 18 18 18 18 19 19 20 20 21 21 21 22 19 14 12 13 19 25 27 29 27 20 9 8 7 6 1 4 5 8 12 19 24 24 24 23 20 20 21 19 20 22 19 15 14 17 22 25 26 22 17 16 18 18 16 13 11 11 11 10 9 6 7 9 9 10 9 9 9 8 8 8 9 12 12 6 5 10 11 11 12 14 15 17 19 22 23
16 15 15 15 16 17 17 18 20 21 21 23 24 23 19 15 13 15 20 24 27 31 29 21 12 6 4 2 1 2 8 5 11 21 22 20 20 19 20 21 19 18 19 21 18 16 16 20 24 24 19 16 16 13 14 16 14 10 10 13 12 10 8 6 7 8 9 9 10 8 7 8 9 7 9 10 7 6 9 10 11 11 11 12 14 16 20 21
13 13 13 14 15 16 17 18 19 22 22 23 25 27 25 20 15 11 13 18 23 28 31 29 27 24 23 21 18 24 29 16 12 19 20 20 19 20 21 20 20 18 17 21 21 18 18 20 22 21 16 13 14 15 17 19 17 11 8 10 11 9 8 6 5 6 7 8 10 8 5 7 8 6 7 8 7 8 10 10 10 10 10 11 12 14 18 19
13 13 13 14 15 16 17 18 19 22 24 25 25 27 27 23 19 13 12 14 16 19 18 19 23 26 30 28 28 36 33 19 13 17 19 20 20 22 21 19 21 20 19 21 21 18 18 19 18 15 12 9 10 12 12 15 15 11 8 9 10 9 8 6 5 5 4 7 10 9 5 5 6 6 5 8 8 10 12 11 9 10 10 11 12 13 16 18
15 14 15 16 17 17 18 18 19 21 24 25 26 26 26 25 24 22 20 16 13 11 9 10 12 15 18 16 24 31 23 14 12 14 16 16 19 22 20 19 21 21 20 19 19 21 19 20 18 14 14 12 11 8 5 5 6 8 11 11 10 9 8 6 6 5 2 5 11 9 5 4 6 6 2 10 11 11 13 11 9 10 10 11 12 13 14 18
15 16 17 17 17 18 18 18 18 19 21 23 24 24 24 24 24 24 24 22 21 20 19 17 14 14 15 13 21 20 12 13 14 13 13 13 16 20 20 21 21 21 20 17 18 22 19 18 18 17 17 14 13 12 10 6 7 10 13 13 12 9 9 8 8 7 2 5 11 8 6 3 4 4 2 11 14 12 13 11 9 10 10 11 12 12 12 15
16 17 17 16 16 16 16 17 16 17 17 18 20 21 22 21 21 22 23 25 25 25 26 24 24 29 30 33 34 19 11 17 19 17 15 14 14 17 21 21 19 20 20 17 17 19 16 14 13 12 11 12 12 12 13 9 9 11 11 11 12 11 9 9 10 10 4 4 12 10 7 3 1 1 3 10 12 11 14 11 10 10 10 11 11 12 12 14
17 17 17 16 15 14 13 13 14 15 15 17 18 18 19 18 19 20 22 24 25 26 25 23 24 27 33 44 40 20 15 20 20 18 16 14 13 15 19 20 18 19 20 20 18 16 15 12 10 9 7 7 7 6 7 6 7 8 7 4 7 8 7 9 11 12 6 4 13 13 6 3 2 2 4 8 10 12 13 12 11 10 10 11 11 12 13 14
17 17 17 17 15 14 13 13 13 14 15 17 16 16 16 17 19 20 20 20 21 21 20 23 28 29 31 35 30 20 19 22 18 14 14 14 14 14 15 18 21 22 22 21 19 18 18 17 18 18 13 8 5 5 6 5 5 6 5 2 2 3 3 7 11 12 7 6 14 12 3 2 4 3 3 5 9 11 12 13 11 10 11 11 12 12 13 15
19 19 19 17 16 14 14 14 15 15 14 14 14 15 15 16 18 20 22 22 20 16 10 12 21 31 35 28 21 22 21 20 16 12 14 15 14 14 13 16 19 21 22 21 19 19 20 19 19 18 16 12 8 6 4 5 5 3 1 2 1 1 2 5 8 10 7 8 14 9 2 0 3 4 2 2 7 8 11 13 10 9 11 12 12 12 13 15
21 20 19 18 16 15 14 14 14 14 14 13 14 14 15 16 16 16 18 20 21 19 16 15 15 22 28 21 19 21 19 18 18 17 17 15 15 14 13 14 15 15 18 18 17 17 18 19 18 15 10 6 4 3 2 3 2 1 2 2 4 4 1 2 5 9 7 8 12 6 2 3 1 2 1 1 2 5 9 12 10 9 10 11 11 11 13 14
18 17 17 17 16 17 18 18 17 15 14 13 13 12 12 12 13 14 14 15 16 14 18 24 23 24 20 13 17 22 21 21 20 17 16 15 14 14 13 14 14 15 16 17 15 14 14 15 15 17 15 7 2 2 1 2 3 4 4 2 3 4 2 1 3 8 11 9 8 5 2 4 3 7 10 4 3 4 7 11 9 9 10 10 11 11 12 13
15 14 14 14 15 16 19 21 22 21 19 19 19 18 16 12 8 8 10 14 17 14 15 17 18 23 18 13 16 22 25 23 18 15 15 15 12 10 11 12 10 10 13 17 18 14 13 12 7 10 18 13 8 5 2 4 4 4 5 3 3 4 4 3 2 6 13 9 7 6 4 5 5 8 11 5 5 4 6 9 7 7 10 9 9 10 11 13
12 11 10 10 10 11 14 15 16 17 17 19 21 24 25 23 16 10 9 9 13 16 16 17 14 12 12 18 17 17 23 24 20 17 14 13 12 10 11 13 12 10 8 11 17 17 11 9 6 6 11 12 10 8 4 4 5 4 5 4 4 5 5 5 2 5 11 8 7 7 5 6 7 8 9 3 4 4 6 6 4 6 9 8 7 9 11 12
11 10 8 7 6 7 8 9 10 10 10 10 11 14 18 24 28 26 24 21 19 15 10 17 19 7 3 18 16 11 18 24 24 20 14 12 13 13 13 12 14 15 10 5 12 20 11 6 8 7 7 7 7 7 5 5 6 6 5 4 5 6 3 5 4 6 9 7 6 6 6 8 8 9 8 3 2 4 6 5 2 4 8 7 6 8 11 13
11 10 9 8 7 7 8 10 12 12 13 11 7 6 6 11 17 23 34 38 32 23 14 15 18 10 6 17 19 13 14 22 25 22 17 13 11 15 16 12 10 15 13 3 6 15 13 8 7 5 4 6 7 6 6 6 6 6 6 5 6 5 4 7 6 6 9 6 4 5 8 10 8 9 7 2 1 4 5 4 1 3 6 6 6 8 9 10
12 11 9 8 8 10 11 11 12 12 15 15 12 11 9 7 7 10 23 31 28 25 24 23 21 16 12 15 21 20 16 19 23 22 18 15 12 11 15 14 9 11 13 5 1 7 12 9 5 4 3 6 6 5 5 6 6 6 5 5 6 4 5 8 3 4 8 6 5 7 10 11 9 9 5 2 1 4 3 3 2 2 5 5 5 6 6 7
11 10 8 7 6 7 7 7 9 11 14 14 12 16 17 15 14 13 15 17 19 22 22 23 24 22 17 14 18 23 22 19 22 25 21 18 17 12 12 14 9 7 11 6 2 3 8 6 3 5 4 6 6 4 5 6 5 5 4 3 4 4 6 5 2 4 8 5 5 8 10 11 11 8 2 2 2 2 0 0 0 1 3 3 3 4 4 6
10 10 8 6 4 3 4 6 9 11 12 11 9 11 15 15 15 15 13 10 12 18 17 19 24 25 22 17 13 17 23 19 18 25 25 20 18 15 12 11 7 5 8 7 5 5 4 2 5 5 5 5 4 4 8 6 3 3 3 3 3 5 5 4 3 9 11 5 4 8 8 9 8 4 3 4 3 1 2 2 2 3 3 2 1 2 2 4
9 9 8 6 5 4 5 6 8 9 9 9 8 7 9 10 10 10 9 6 6 11 15 16 20 23 23 20 13 10 16 18 18 24 25 21 16 11 9 8 5 4 5 6 8 8 2 1 5 6 5 4 4 4 8 5 1 0 2 3 3 5 4 5 6 10 10 4 4 8 7 4 2 2 2 4 5 3 4 5 4 5 5 4 5 4 2 2
8 8 7 6 5 5 5 6 8 9 8 7 7 5 4 3 3 3 3 4 3 7 12 13 15 19 21 21 16 7 7 14 19 22 22 21 17 8 5 7 5 4 5 5 5 6 2 1 3 5 4 4 4 2 4 4 4 2 0 1 1 3 5 6 8 8 5 2 3 5 5 3 2 3 2 4 4 4 7 7 5 6 6 5 6 3 1 2
6 6 6 6 5 5 5 5 8 9 7 7 7 5 3 1 1 2 1 2 2 7 10 10 10 14 18 20 18 5 2 9 16 22 22 19 16 9 4 6 5 3 4 3 2 2 3 2 2 3 5 5 2 1 1 2 4 4 2 3 1 2 5 6 7 5 2 3 2 4 2 3 5 3 3 3 3 3 7 8 7 8 7 7 6 2 2 3
6 6 6 6 5 6 5 6 7 8 6 6 6 5 3 3 2 1 1 2 3 6 7 8 7 10 14 18 19 6 2 9 12 18 23 17 13 11 6 4 2 3 1 0 2 1 3 4 4 5 4 3 3 1 2 3 3 4 2 2 2 4 6 5 5 2 2 4 3 4 2 2 5 3 2 2 3 4 4 7 9 10 9 8 6 4 5 5
6 6 6 6 6 7 7 7 6 6 6 4 5 4 3 2 0 1 2 3 3 5 5 6 6 9 10 12 20 12 2 9 7 10 20 18 15 10 5 3 2 2 1 2 2 1 1 3 4 6 4 3 3 2 3 2 1 4 3 4 5 4 3 3 3 3 4 3 2 2 2 1 4 3 2 2 2 5 5 6 8 11 11 9 7 7 7 6
6 6 7 7 7 7 7 7 7 6 5 4 3 4 3 3 1 1 2 1 2 3 3 6 5 10 11 7 13 13 8 9 6 8 15 17 17 10 2 3 4 4 2 1 1 0 1 1 1 3 2 2 3 4 5 0 3 7 10 10 6 4 2 1 2 3 3 2 1 3 1 1 5 4 3 1 3 5 4 3 6 10 11 9 8 8 7 6
6 6 6 6 6 7 6 7 7 6 5 4 3 3 3 2 0 2 3 1 1 2 4 6 4 9 14 6 6 13 10 8 9 12 13 14 18 16 4 1 5 3 2 2 2 2 2 2 1 0 0 3 5 8 7 6 8 10 10 9 5 3 2 2 3 2 2 2 2 4 3 2 3 4 2 2 3 2 2 1 5 7 9 9 8 7 7 7
7 6 6 6 6 7 7 7 8 6 5 4 3 4 3 1 1 3 2 1 0 3 3 4 4 6 9 3 2 10 8 6 11 11 9 9 15 18 10 3 6 3 0 2 2 2 2 2 1 2 0 4 5 5 4 6 7 5 4 5 3 1 0 1 1 1 1 3 3 3 2 2 1 4 1 3 4 3 2 1 5 8 8 8 8 7 7 6
7 7 7 7 7 8 8 9 9 7 6 5 3 3 1 2 4 2 1 1 1 2 1 1 3 4 5 3 2 6 4 4 10 7 4 4 5 10 9 4 4 3 2 4 2 0 1 1 1 2 0 4 3 3 2 1 3 3 3 5 4 2 2 2 2 1 1 2 3 4 0 1 4 5 2 3 4 4 3 4 4 7 8 8 8 8 7 7
7 7 7 8 8 9 9 9 11 9 7 6 2 1 1 2 2 0 1 1 1 1 1 2 4 4 4 3 3 5 2 2 6 4 2 2 2 3 7 8 7 2 1 4 4 4 2 1 1 1 1 3 3 3 2 2 4 5 5 4 4 3 4 4 4 3 2 2 2 3 2 2 4 4 1 4 6 6 6 6 5 4 6 7 8 8 8 8
7 7 7 8 8 9 10 10 12 10 8 6 1 3 5 3 1 1 1 1 0 2 2 1 4 5 3 2 1 3 2 1 4 5 4 4 4 3 4 9 11 5 2 2 3 3 2 2 3 1 2 3 3 2 0 2 4 4 3 1 1 3 2 2 3 3 5 5 6 2 2 2 4 2 2 5 6 6 7 6 5 4 3 5 6 7 8 10
7 7 7 8 8 9 10 11 13 12 10 7 3 4 5 2 1 1 1 1 1 1 2 1 3 3 2 1 0 1 2 1 3 4 5 4 3 3 3 5 9 7 3 2 2 1 1 2 2 1 2 2 3 1 0 2 2 3 3 1 0 0 2 2 3 4 4 4 5 2 2 3 2 1 3 4 4 4 5 4 3 3 3 4 5 6 8 10
6 7 7 8 9 9 10 11 12 13 10 7 5 4 3 1 0 2 2 2 1 1 3 3 3 3 2 1 1 1 1 1 3 3 3 3 2 3 2 2 6 7 4 2 2 2 2 4 2 2 2 3 4 2 2 2 2 2 2 1 1 1 3 1 4 3 1 2 3 2 3 5 2 2 3 4 2 2 5 5 4 4 4 5 7 8 10 12
5 6 8 10 10 9 10 10 10 11 10 7 6 3 1 1 1 2 4 3 1 1 2 2 2 2 2 1 2 3 1 0 2 2 2 2 2 2 2 1 3 5 4 2 1 2 1 6 3 2 1 1 2 2 2 2 1 1 1 2 1 1 3 1 2 2 2 2 3 2 4 6 4 2 4 4 2 3 4 5 6 5 6 8 10 10 11 13
5 5 7 10 11 10 9 10 8 8 9 8 5 2 1 1 2 2 3 3 1 1 1 1 1 1 1 2 2 4 3 2 3 3 2 1 1 1 1 2 2 3 3 2 1 1 1 4 3 1 1 1 2 2 2 2 2 1 2 3 0 1 1 1 2 2 3 4 4 3 5 6 3 2 6 7 3 3 3 4 4 5 7 9 10 11 12 13
5 4 7 10 11 10 9 9 7 4 7 7 3 2 1 1 1 2 2 2 1 2 1 1 1 1 1 1 2 3 3 3 4 3 2 1 1 0 1 1 1 1 3 3 1 1 1 0 2 2 1 2 1 1 2 1 2 2 3 3 1 1 1 1 1 1 2 4 4 4 5 4 1 3 7 7 5 5 3 2 2 2 2 4 7 8 9 9
5 4 5 9 10 10 8 7 6 5 6 4 2 2 1 1 1 1 2 3 1 2 2 1 1 1 1 1 1 1 2 2 3 1 1 1 1 1 2 2 1 0 2 2 0 2 1 1 3 3 0 1 1 0 1 1 1 1 1 1 2 0 1 1 1 1 0 2 3 4 6 5 3 4 5 4 6 6 5 5 6 7 7 9 9 9 9 10
5 3 4 8 9 9 7 6 8 8 4 2 3 2 1 2 2 1 3 3 3 3 3 2 2 1 1 2 0 1 1 2 2 1 1 1 1 1 2 2 2 1 1 1 0 1 1 1 3 4 4 4 1 1 1 1 1 0 0 1 2 1 1 2 2 1 1 1 1 2 6 7 5 3 3 4 5 4 6 6 3 3 6 10 10 9 10 12
5 3 5 8 8 8 6 6 8 7 3 2 3 3 1 2 2 1 3 3 3 3 3 3 3 2 2 2 1 2 2 1 0 1 1 0 0 0 2 2 2 2 2 1 1 1 1 1 3 4 6 4 1 3 2 1 2 2 0 0 2 1 1 1 2 1 1 1 0 1 4 6 3 1 3 3 3 4 4 4 6 7 8 9 9 10 11 12
5 4 6 8 6 5 4 5 5 5 4 2 3 3 3 2 1 1 2 3 2 1 1 2 2 2 2 1 1 2 3 1 1 1 1 1 0 2 1 1 0 2 2 1 0 1 0 1 1 5 6 1 2 2 2 3 2 2 0 1 1 1 2 2 2 1 0 2 1 1 4 5 3 2 2 1 2 2 7 9 11 11 10 9 9 10 12 13
5 4 5 8 6 2 2 3 3 3 2 2 3 3 2 2 2 2 2 2 2 2 1 2 2 2 2 2 2 2 3 2 1 2 1 1 1 2 1 2 2 1 2 0 1 2 1 0 1 4 5 3 2 2 2 3 2 0 2 3 4 2 2 2 1 1 1 5 5 4 5 4 2 2 3 3 4 8 11 13 15 13 10 13 13 12 13 14
4 3 4 9 7 1 4 5 6 6 3 3 3 2 2 2 1 1 2 2 2 2 2 2 2 3 3 3 3 2 3 2 0 1 2 1 1 2 1 3 4 2 1 1 1 2 1 1 1 2 4 4 4 3 2 3 3 2 2 2 3 4 4 2 1 1 3 5 6 5 6 6 5 6 8 9 10 12 14 17 17 14 13 16 16 13 13 13
3 2 3 7 8 7 8 7 8 8 5 4 3 2 2 2 1 2 2 2 1 1 2 3 3 3 3 2 2 3 3 2 1 2 2 1 1 2 1 2 4 3 0 1 1 1 1 2 2 4 5 5 7 9 6 6 7 8 9 7 5 5 7 4 2 4 4 3 6 8 10 12 14 10 9 11 11 11 15 18 16 13 14 16 15 11 11 11
1 1 2 3 5 8 10 9 7 7 6 5 3 3 4 3 1 2 2 1 2 2 2 2 2 3 2 2 2 1 2 3 2 2 4 3 0 1 2 2 3 3 1 0 0 0 1 3 5 8 9 9 11 14 11 9 10 13 13 12 9 6 6 6 7 8 3 3 8 9 7 11 14 11 10 12 12 12 16 19 17 14 15 16 13 9 10 10
2 1 1 1 2 3 4 4 6 8 7 4 3 3 5 4 3 3 3 2 2 3 3 1 3 5 4 3 3 2 1 1 3 3 3 3 1 1 2 2 1 3 2 2 0 1 0 4 4 5 8 9 10 13 13 11 12 14 13 13 11 9 9 10 13 12 7 6 11 11 10 13 16 14 13 16 16 17 20 22 18 16 16 15 11 9 10 11
4 3 2 3 3 3 3 4 6 8 7 4 2 3 4 5 5 2 3 3 1 3 4 2 3 6 7 6 3 2 3 2 3 5 3 3 2 1 1 1 2 3 4 2 1 1 0 2 2 2 7 9 10 14 14 11 13 15 15 13 11 11 12 12 13 12 11 13 15 15 16 17 17 15 15 21 27 26 24 21 17 14 15 14 11 9 10 11
3 2 2 3 4 6 6 6 5 3 2 2 1 2 4 5 5 3 4 5 2 2 5 4 3 5 7 7 5 3 5 4 2 4 3 3 2 1 2 1 2 3 4 3 1 1 1 1 1 1 5 9 9 10 10 8 11 16 18 17 12 11 11 11 12 10 10 12 14 15 16 15 18 20 19 24 27 22 18 17 14 12 12 12 11 11 11 12
2 2 2 3 3 4 4 3 1 0 0 1 1 2 3 4 6 5 4 5 4 4 7 7 4 4 4 5 6 7 7 5 4 7 7 7 6 4 2 0 4 4 4 3 2 2 2 2 3 3 5 7 3 3 8 9 11 15 19 19 13 8 7 8 8 8 9 10 10 10 10 9 13 16 15 16 18 15 14 14 12 12 12 13 14 14 13 14
1 2 2 2 1 2 3 1 1 0 0 1 2 4 3 2 7 7 3 2 5 6 8 9 6 4 2 3 6 8 7 7 8 11 12 13 15 14 11 7 2 3 4 4 3 3 3 1 3 3 4 5 1 3 9 10 9 9 8 8 6 5 5 6 6 8 10 8 6 6 8 8 9 9 8 10 14 14 13 11 12 16 17 17 18 17 15 16
Wind_Direction
80 78 76 75 72 70 69 67 65 61 57 56 60 62 64 65 65 73 88 111 115 100 89 79 78 76 72 70 64 63 62 60 68 68 56 40 30 33 34 39 45 50 52 54 64 52 40 44 46 53 59 52 41 34 39 32 28 40 61 61 59 47 41 27 25 22 7 3 10 17 19 21 13 1 360 357 13 29 24 24 17 10 16 9 356 343 336 335
81 80 77 74 71 68 65 63 62 60 57 54 52 57 63 62 57 58 64 96 152 147 122 90 81 77 72 70 63 63 60 60 70 63 48 40 41 43 42 48 52 58 57 52 54 42 33 43 48 57 62 57 45 45 56 44 43 55 68 69 68 64 52 40 36 30 18 2 10 19 18 28 26 4 4 353 4 32 21 4 4 358 355 354 349 344 345 343
83 81 77 73 68 64 61 59 59 58 57 54 52 53 64 67 58 54 56 62 77 157 203 189 128 88 77 70 62 59 53 58 62 48 39 44 43 44 49 51 52 61 59 48 48 45 41 54 57 60 65 60 48 52 58 45 47 56 69 83 76 86 73 47 41 35 28 10 12 21 14 27 35 19 16 358 360 36 28 357 356 353 347 347 345 343 346 346
85 81 75 69 63 60 57 55 56 56 56 55 56 55 64 80 67 56 55 55 57 62 83 167 173 143 112 81 63 59 52 52 43 30 39 45 40 44 50 53 49 56 62 52 47 52 57 66 72 67 66 64 52 56 54 42 58 61 64 84 89 94 80 48 41 31 29 21 18 22 14 18 28 34 30 13 7 27 16 358 350 343 339 342 343 341 343 342
84 78 70 64 59 55 53 53 54 55 57 60 59 57 66 88 84 64 59 59 60 64 68 99 166 179 183 190 10 25 44 45 27 30 45 43 40 45 49 54 49 53 68 72 60 56 60 64 71 67 64 64 54 58 57 55 78 76 64 75 81 87 81 56 44 28 25 22 20 19 12 2 6 36 40 28 35 13 350 345 339 336 336 337 342 339 339 341
81 74 66 59 54 51 52 55 55 56 61 66 63 59 68 85 96 76 63 66 70 72 73 76 90 104 117 79 315 86 92 82 25 39 47 42 43 45 50 55 52 53 69 82 77 66 66 64 67 68 67 66 59 62 60 59 80 91 75 76 78 78 82 66 45 35 25 20 17 10 6 359 359 26 42 39 37 4 343 337 334 335 336 335 342 338 337 342
78 69 61 54 52 53 57 59 60 61 64 70 68 64 70 78 87 83 65 73 83 84 81 79 82 85 88 90 98 92 83 76 48 51 50 44 44 45 49 54 55 53 60 76 76 68 70 69 69 71 73 74 71 73 71 68 76 92 94 88 83 80 84 74 55 43 24 24 9 346 351 12 10 9 26 36 25 358 344 338 334 334 336 338 345 341 337 339
73 65 61 59 60 62 64 67 66 66 68 72 73 69 71 74 76 75 69 83 96 92 79 76 84 89 90 87 82 74 62 51 56 59 50 44 44 45 46 52 59 54 55 70 76 76 73 69 71 73 73 79 84 86 86 75 69 81 100 102 94 86 82 77 77 54 25 28 3 336 344 36 25 344 8 30 11 356 348 340 336 336 338 340 346 344 338 337
73 69 68 69 70 70 72 74 72 70 70 72 76 76 76 76 76 72 71 80 92 87 64 67 88 95 92 78 67 61 42 30 53 51 43 41 44 47 46 50 58 56 56 65 79 85 77 69 73 79 83 81 77 79 88 80 70 91 108 109 100 89 76 62 56 44 46 30 5 344 334 37 29 330 36 41 8 351 346 339 336 337 339 340 344 343 338 337
75 72 75 77 77 77 77 76 75 75 73 73 76 79 80 80 80 79 79 81 83 81 75 78 91 95 97 88 74 64 32 35 48 39 34 31 42 54 53 51 54 58 58 62 77 84 81 80 84 85 84 77 67 61 62 85 114 113 116 112 99 89 72 58 43 20 11 23 3 342 317 356 31 322 26 21 357 345 343 338 336 339 342 343 343 343 341 338
75 73 76 80 81 79 78 76 75 76 77 77 78 81 85 85 84 83 82 80 79 80 80 85 87 81 78 76 74 64 34 45 41 31 31 29 42 56 55 52 53 59 63 63 74 83 83 90 96 86 80 84 80 68 69 92 122 124 128 118 103 96 73 58 45 13 354 18 350 325 302 302 24 345 13 360 346 344 342 334 337 342 344 346 345 344 344 340
77 74 74 77 78 76 77 78 75 76 79 79 81 85 86 83 80 77 77 78 76 76 78 82 80 75 67 63 62 53 40 47 38 26 28 36 50 60 59 56 56 62 67 67 69 79 83 84 90 85 90 104 99 82 89 112 130 147 170 139 117 117 76 49 41 13 2 15 338 321 299 248 176 53 22 356 347 347 341 334 337 342 346 349 347 347 346 340
79 76 74 73 72 72 76 80 77 79 79 79 81 83 83 80 76 74 74 74 73 75 76 71 68 71 70 60 52 48 47 46 41 32 35 46 57 65 68 67 67 66 68 71 72 79 84 84 84 85 91 95 93 98 120 152 160 175 213 251 160 154 63 47 39 11 7 6 338 332 326 170 135 93 35 3 355 349 338 332 333 343 352 351 348 348 346 340
79 75 71 67 66 69 76 80 78 77 76 78 80 80 81 80 78 75 73 70 67 66 68 68 62 63 69 66 50 49 49 47 50 50 48 53 57 64 73 75 75 69 66 69 73 80 82 79 73 75 81 81 98 121 142 181 184 179 237 319 338 339 38 63 42 19 13 355 340 333 314 11 123 124 125 19 2 352 336 326 334 354 355 352 349 349 348 346
73 69 64 63 66 71 76 78 76 73 71 73 78 81 80 79 77 73 72 72 69 64 66 74 73 66 66 61 49 49 54 55 53 48 47 53 60 65 72 76 76 66 61 62 63 68 70 69 61 54 58 66 108 152 191 171 156 39 24 14 358 353 44 72 47 40 19 345 342 331 294 319 360 51 357 216 15 1 333 321 337 359 351 347 348 350 351 351
68 63 61 64 69 74 76 76 75 73 72 71 72 74 77 77 72 67 70 73 72 69 66 68 68 68 64 47 42 45 47 45 40 40 45 50 57 62 66 71 71 62 57 55 48 45 48 52 52 46 41 27 341 273 213 63 33 14 13 21 12 346 346 14 120 62 23 349 341 330 296 295 308 354 338 329 53 21 332 323 345 360 341 338 344 352 356 356
61 58 61 68 72 76 78 77 77 77 77 74 70 66 64 59 49 58 70 73 76 72 65 67 66 67 60 38 36 32 32 35 34 40 44 45 50 55 58 56 54 48 45 44 38 39 41 36 40 43 37 28 360 349 72 41 353 360 3 355 19 344 338 352 158 54 18 358 333 310 271 278 294 330 321 333 45 12 329 329 352 351 334 338 342 351 1 2
45 49 58 68 74 77 77 74 70 71 72 72 72 69 65 62 61 71 80 85 83 71 59 53 54 71 47 21 20 16 24 33 32 33 36 39 45 47 45 42 36 24 23 40 34 34 41 39 53 56 31 26 12 13 60 31 342 347 352 336 353 333 324 349 4 28 10 353 322 306 280 299 314 319 311 327 32 350 318 326 349 329 332 351 345 350 4 2
33 40 50 63 75 72 69 64 59 58 57 59 68 71 68 64 66 67 67 72 71 62 48 37 43 88 31 13 19 18 28 34 29 29 33 32 43 47 42 39 34 27 29 50 27 24 31 39 43 42 15 7 11 16 20 3 342 326 320 296 306 310 312 348 10 33 7 338 310 316 306 304 312 315 317 346 21 334 304 304 331 308 326 352 351 356 5 356
34 39 45 61 79 79 79 77 69 60 51 46 42 65 69 54 57 55 56 62 65 65 66 53 52 72 46 23 30 34 35 36 28 27 29 26 41 50 47 42 33 32 30 18 13 24 39 58 45 29 352 345 353 358 347 333 321 306 298 288 298 309 325 335 3 34 5 338 296 316 306 298 306 307 316 17 357 305 296 300 352 321 322 337 354 8 7 353
37 40 45 62 82 90 93 85 67 47 41 41 43 66 72 58 75 69 59 61 62 62 60 54 50 47 36 27 31 34 35 34 30 31 31 31 44 48 43 41 40 30 13 358 111 31 42 63 43 6 339 327 321 323 326 308 302 301 291 304 318 337 331 325 13 36 356 344 298 312 309 298 301 297 301 81 268 287 305 337 1 345 321 321 353 8 4 357
38 38 42 56 76 87 83 61 35 17 16 23 39 68 76 79 89 89 80 71 56 52 50 45 43 37 31 29 29 32 33 27 22 27 30 35 47 51 41 42 54 37 4 10 124 34 43 64 5 349 334 309 292 305 327 295 274 284 290 327 332 356 342 315 72 22 342 332 295 316 316 296 289 280 244 148 252 282 112 134 342 304 296 312 8 4 357 356
40 39 40 42 44 41 15 1 358 356 3 15 38 70 80 84 86 79 81 86 59 45 38 36 35 29 26 25 21 29 37 32 12 14 20 27 41 48 42 41 58 52 20 33 66 52 52 44 346 328 308 305 291 350 356 315 245 255 315 12 328 357 6 297 343 345 322 310 314 320 305 288 285 257 173 179 205 145 151 196 245 259 257 237 235 297 354 356
41 41 41 37 31 15 359 358 358 360 10 31 54 76 90 88 82 78 76 93 82 38 26 28 27 23 22 17 11 24 40 37 16 10 16 22 29 39 37 30 38 48 31 47 78 86 115 280 333 303 274 275 274 1 14 347 346 357 25 45 321 335 343 276 306 322 310 319 4 335 309 286 262 202 167 154 158 164 191 205 240 244 241 222 225 269 326 340
42 43 40 36 35 22 20 20 16 19 27 45 61 70 100 94 56 63 73 99 86 11 12 18 17 17 15 10 8 16 49 35 18 11 15 21 25 34 33 18 24 27 3 16 85 93 86 268 308 306 286 276 272 353 22 342 338 342 55 89 288 308 301 287 306 319 324 349 25 7 342 309 265 224 175 134 161 195 186 191 228 233 233 227 225 270 341 277
39 44 40 37 35 19 22 28 23 27 34 49 56 56 70 34 12 50 71 115 29 346 359 3 3 9 10 9 6 6 93 20 10 14 18 21 23 34 34 10 38 49 349 353 84 80 4 324 305 320 304 293 291 76 18 3 344 322 234 199 209 294 290 302 324 338 348 295 326 43 49 288 301 262 161 147 222 217 167 187 219 218 226 230 222 219 158 225
33 40 39 37 35 23 25 29 26 27 32 43 44 47 54 37 68 61 42 106 21 343 347 351 354 2 5 12 16 42 162 341 353 16 20 21 22 38 44 3 38 63 58 88 33 357 339 6 3 339 325 342 25 29 4 37 351 301 214 196 295 299 296 313 330 312 269 288 327 35 90 237 294 283 144 124 273 265 202 198 203 202 218 223 213 216 214 233
30 32 34 36 35 28 28 29 23 21 22 27 29 31 26 7 301 339 57 104 348 333 344 347 353 4 5 19 29 53 60 348 357 11 16 23 22 29 47 21 346 340 103 131 26 327 286 22 2 336 346 16 11 310 321 24 287 275 310 326 298 278 292 314 307 270 270 303 327 348 74 150 281 270 149 118 287 276 251 213 194 193 204 211 212 229 241 249
35 32 29 31 31 27 27 26 22 17 11 1 360 4 354 346 279 325 62 137 312 336 350 348 345 357 360 11 32 38 29 15 16 359 15 28 23 21 51 33 360 311 301 108 69 110 190 152 350 338 355 355 317 288 304 192 218 286 315 314 279 218 195 254 266 274 287 308 250 242 209 19 298 257 168 166 283 279 262 198 176 182 190 204 214 226 243 253
39 37 32 26 28 28 24 18 14 10 2 352 340 334 336 347 43 66 45 244 316 353 334 354 349 346 355 2 25 17 15 19 5 2 21 30 25 29 46 10 359 325 296 18 58 90 129 157 186 66 32 308 291 290 287 229 243 296 316 302 266 171 146 227 240 263 314 305 201 206 204 73 321 265 158 136 207 245 316 104 140 161 179 195 208 221 239 253
40 39 34 28 28 24 17 10 2 359 357 346 319 321 319 342 46 82 77 243 337 355 334 1 357 347 360 12 3 356 359 9 2 7 18 17 24 28 34 13 351 356 334 360 59 118 137 161 200 159 204 320 299 292 283 232 256 302 316 298 306 77 18 275 238 153 31 298 217 183 205 132 200 276 360 106 150 140 357 30 138 156 175 190 202 214 232 247
37 34 30 28 28 18 10 5 358 354 352 345 328 318 289 55 26 80 162 283 310 354 357 341 340 348 349 336 347 349 344 353 357 8 5 358 27 28 39 44 342 4 35 353 348 180 188 194 127 139 360 338 315 306 343 250 296 322 319 328 348 1 357 355 320 307 319 278 196 156 79 295 222 250 312 67 82 83 35 25 107 157 178 190 199 206 221 235
34 31 28 25 23 14 7 3 359 356 350 346 345 3 62 76 35 157 219 335 291 329 356 249 301 319 327 339 354 345 330 318 346 353 324 355 67 49 60 50 11 360 329 338 341 344 348 332 15 101 329 346 356 358 14 346 337 341 344 1 7 6 6 336 322 324 304 285 247 168 136 304 267 262 337 71 61 61 64 52 70 131 171 187 198 208 221 234
35 33 30 23 20 12 7 4 359 357 353 350 3 63 53 75 80 35 20 356 294 308 318 286 304 315 352 31 14 344 360 265 340 348 331 6 47 30 44 32 16 7 283 327 360 355 8 327 328 15 325 345 24 50 73 295 314 314 313 23 36 32 40 304 320 322 298 301 310 307 135 272 286 309 26 81 79 70 80 83 91 106 134 170 193 215 229 241
41 35 30 24 20 13 10 8 2 358 353 355 39 67 58 99 191 39 44 328 18 308 300 324 320 313 353 38 121 32 51 9 352 8 5 22 37 11 8 3 6 7 327 344 14 348 334 278 273 58 350 11 37 28 328 336 294 270 299 75 43 360 156 254 266 262 287 311 304 274 182 261 254 107 47 73 95 111 115 116 124 132 159 182 204 223 234 246
43 35 33 27 17 12 11 7 6 5 359 9 57 60 52 107 276 26 20 348 38 357 320 329 338 344 360 356 334 10 89 29 339 2 28 41 46 32 47 356 358 14 22 18 360 2 341 283 228 96 26 52 54 360 8 14 300 289 345 67 241 223 136 249 277 268 325 321 280 264 277 296 343 65 20 36 46 152 147 158 176 188 215 222 232 239 244 249
33 29 30 23 13 10 8 4 9 14 15 37 71 68 78 93 12 5 4 353 356 335 323 328 358 21 356 325 9 357 344 180 340 2 35 40 45 34 61 70 16 26 43 33 5 73 332 288 274 90 15 72 84 25 23 6 342 14 335 237 240 64 105 156 286 318 342 285 276 305 316 317 331 335 337 344 294 207 178 187 193 206 225 235 246 253 259 261
15 20 25 20 13 6 2 3 4 13 34 59 84 90 116 82 16 8 5 4 348 319 347 358 6 73 4 318 4 355 349 2 354 9 39 25 33 30 68 77 36 28 28 3 346 84 271 288 307 360 322 168 132 71 25 307 314 11 293 273 80 72 11 320 310 312 320 309 296 316 339 327 308 334 339 330 292 187 167 179 196 224 235 244 257 263 267 267
4 14 21 13 9 5 4 5 359 12 52 67 96 104 83 82 53 28 26 42 349 324 36 52 330 75 57 337 335 358 17 12 342 357 61 40 15 51 110 112 94 46 5 354 12 325 315 228 291 282 175 141 130 79 60 315 300 329 318 317 28 122 213 285 309 262 298 310 304 327 341 319 287 8 340 341 17 45 57 99 78 13 354 328 313 303 295 283
4 18 20 5 3 6 4 9 21 47 65 61 78 107 140 128 89 37 56 77 69 19 35 16 321 360 10 293 295 31 19 340 331 332 7 15 44 59 67 73 96 187 310 339 37 308 329 152 265 287 105 62 322 99 55 29 360 345 341 347 353 88 163 220 230 149 299 300 302 322 312 283 291 344 337 12 39 29 29 36 33 31 25 7 346 325 319 313
14 28 11 359 2 4 3 25 40 50 79 91 69 81 163 133 109 71 58 73 86 72 62 53 41 54 349 313 339 78 341 316 333 331 338 32 65 4 68 86 38 360 317 318 259 307 328 228 281 304 311 313 298 160 31 34 98 44 250 62 18 30 95 328 314 28 35 260 247 300 293 284 291 323 352 37 51 49 43 33 13 352 351 352 348 331 320 316
21 19 353 353 357 359 15 50 46 43 75 102 72 77 87 97 107 67 42 60 83 77 73 75 63 61 45 325 324 30 5 313 272 322 331 132 203 15 92 101 45 7 343 289 152 97 59 265 287 282 278 299 60 127 83 57 95 86 101 8 19 48 132 286 294 341 348 257 276 237 261 271 269 312 360 13 86 80 29 341 291 291 315 331 335 329 320 312
14 360 344 345 345 355 35 72 60 44 59 82 92 102 92 79 87 65 31 46 64 46 59 82 59 44 42 338 332 24 10 332 185 158 320 293 360 92 130 169 97 6 343 297 122 53 21 217 281 279 270 273 100 105 41 12 36 70 245 229 219 207 135 169 245 348 316 231 183 197 251 263 267 298 321 246 143 18 342 328 309 295 303 320 325 322 316 310
2 3 359 356 341 322 69 91 102 84 84 102 95 86 82 69 57 78 60 34 36 360 355 65 66 65 59 29 30 12 360 5 158 132 89 297 354 102 167 211 180 47 19 132 350 356 338 200 345 316 309 329 15 23 4 341 343 218 224 192 186 194 103 94 232 60 263 225 195 205 253 256 267 306 295 266 295 319 324 329 323 311 317 332 332 324 316 312
352 350 13 16 7 23 108 107 129 128 130 129 108 104 115 86 68 115 93 62 54 24 24 80 88 90 92 64 48 16 10 28 129 50 50 286 221 138 158 199 181 138 80 146 64 28 308 296 343 333 326 321 314 316 324 328 323 294 265 210 190 194 172 158 231 224 242 226 195 209 250 265 288 300 294 295 308 317 319 322 320 317 321 326 324 317 312 313
17 15 11 19 27 63 88 99 121 125 141 156 128 145 157 104 123 165 122 88 101 82 82 115 122 108 117 116 77 28 356 353 325 338 327 276 201 142 169 183 178 177 187 180 79 53 300 291 242 227 241 255 270 284 313 339 318 293 287 283 262 221 196 181 210 226 236 258 240 235 248 269 284 289 292 302 310 312 313 316 318 316 314 315 317 311 311 319
46 45 354 8 34 61 74 79 94 115 145 163 143 150 148 119 117 166 168 163 161 155 119 124 167 157 161 164 129 89 313 329 339 302 266 252 196 147 176 163 186 209 200 115 209 79 305 272 227 222 236 248 266 283 303 317 294 282 285 282 272 251 218 202 220 230 243 307 266 249 250 272 284 294 301 302 304 306 308 313 318 316 312 312 312 306 309 323
58 103 63 65 57 53 60 68 89 105 116 122 132 147 141 143 162 170 179 176 180 188 166 137 218 211 202 181 142 150 203 328 315 277 264 262 247 139 151 114 135 195 157 100 88 80 360 262 231 224 252 261 271 284 293 294 282 276 275 273 268 257 234 223 235 238 232 248 257 267 286 285 284 291 294 292 294 296 300 306 311 311 311 311 307 298 303 315
64 87 100 101 87 91 106 113 111 108 101 92 116 162 159 166 174 161 145 133 115 218 187 178 230 214 204 194 160 155 178 184 274 262 254 257 256 229 211 121 106 172 171 134 103 71 115 251 250 270 281 281 275 276 278 277 280 280 273 266 260 253 243 236 243 242 232 242 255 268 278 278 277 278 279 283 287 289 293 298 301 301 304 306 302 298 301 308
55 62 101 104 87 92 105 116 120 111 97 86 127 189 181 176 169 154 164 164 145 190 186 206 231 197 191 191 180 198 207 189 232 247 227 223 236 180 213 223 119 170 202 183 165 163 165 231 16 34 292 285 270 269 277 275 280 286 285 282 271 258 251 245 245 243 240 248 255 262 269 271 272 274 274 277 281 285 290 296 299 297 298 297 293 296 303 311
55 69 115 106 88 100 106 107 116 344 132 172 189 177 189 209 188 162 164 189 188 179 182 188 183 158 168 193 202 227 242 238 252 257 245 240 244 231 220 165 98 137 201 201 177 164 172 272 347 27 310 293 274 284 297 293 286 283 283 282 273 245 233 237 230 212 212 231 245 256 263 261 266 274 275 276 284 290 295 304 311 302 293 288 285 289 299 309
113 114 146 128 87 140 151 152 170 359 255 197 169 165 172 197 179 164 144 212 208 200 187 177 165 155 167 208 222 235 247 253 263 270 268 263 261 259 258 265 250 170 194 181 164 174 174 229 345 10 298 285 346 328 305 308 309 290 264 256 253 226 215 235 240 213 202 207 223 235 241 250 273 289 290 289 293 293 293 303 313 305 296 289 286 286 292 300